Meteo Giornale » Osservazioni meteo Italia » Rimini

ore: 20:50 - Osservazioni Meteo Rimini
Lat. 44° 2' N Lon. 12° 37' E Alt. 12 metri s.l.m.

foschia Europe/Rome

16 °C

Foschia

Temp. 24 Ore

16 °C

19 °C

Ovest

9.3 Km/h

Dew point 15 °C

Umidità 93 %

Visibilità  4 Km

Il sole sorge alle ore 07:25

Il sole tramonta alle ore 18:23

Data e Ora Cielo e Fenomeni T °C DP °C Um. % Pres. hPa Vis. km Vento km/h
Oggi h: 20:50 foschia Foschia 16 15 93 1018 4 O 9.3
Oggi h: 20:20 foschia Foschia 16 15 93 1017 4 O 9.3
Oggi h: 19:50 foschia Foschia 16 15 93 1018 4 O/SO 9.3
Oggi h: 19:20 foschia Foschia 16 15 93 1017 2 O 13
Oggi h: 17:50 foschia Foschia 16 15 93 1017 2 O/SO 11.1
Oggi h: 17:20 foschia Foschia 16 15 93 1017 2 O 13
Oggi h: 16:50 coperto_pioggia Pioggia Debole Foschia 16 15 93 1017 2 O/SO 13
Oggi h: 16:20 coperto_pioggia Pioggia Debole Foschia 16 16 100 1018 2 O 11.1
Oggi h: 15:50 coperto_pioggia Pioggia Foschia 16 16 100 1018 2 O 13
Oggi h: 15:20 coperto_pioggia Pioggia Foschia 16 16 100 1018 2 O 11.1
Oggi h: 14:50 coperto_pioggia Pioggia Foschia 16 16 100 1018 2 O 14.8
Oggi h: 14:20 coperto_pioggia Pioggia Debole Foschia 17 15 88 1018 3 O 16.7
Oggi h: 13:20 foschia Foschia 17 15 88 1018 3 O 16.7
Oggi h: 12:50 foschia Foschia 17 15 88 1019 3 O 18.5
Oggi h: 12:20 coperto_pioggia Pioviggine Leggera Foschia 17 15 88 1019 3 O 16.7
Oggi h: 11:50 foschia Foschia 17 15 88 1019 4 O 18.5
Oggi h: 11:20 foschia Foschia 17 16 93 1019 3 O 18.5
Oggi h: 10:50 foschia Foschia 17 16 93 1019 3 O 16.7
Oggi h: 10:20 foschia Foschia 17 16 93 1019 3 O 16.7
Oggi h: 09:50 foschia Foschia 17 16 93 1019 3 O 14.8
Oggi h: 09:20 foschia Foschia 16 16 100 1019 3 O 14.8
Oggi h: 08:50 foschia Foschia 16 16 100 1019 3 O 13
Oggi h: 08:20 foschia Foschia 16 16 100 1019 3 O 13
Oggi h: 07:50 foschia Foschia 16 15 93 1018 3 O 13
Oggi h: 07:20 foschia Foschia 16 16 100 1018 4 O 16.7
Oggi h: 06:50 foschia Foschia 16 16 100 1018 3 O 16.7
Oggi h: 06:20 foschia Foschia 16 16 100 1018 3 O 16.7
Oggi h: 05:50 foschia Foschia 16 16 100 1018 3 O 16.7
Oggi h: 05:20 coperto_pioggia Pioggia Debole Foschia 16 16 100 1018 2 O 14.8
Oggi h: 04:50 coperto_pioggia Pioggia Debole Foschia 16 16 100 1018 3 O 13
Oggi h: 04:20 foschia Foschia 16 16 100 1018 3 O 16.7
Oggi h: 03:50 foschia Foschia 16 16 100 1018 3 O 16.7
Oggi h: 03:20 coperto_pioggia Pioggia Foschia 16 16 100 1018 3 O 16.7
Oggi h: 02:50 coperto_pioggia Pioggia Debole Foschia 17 16 93 1019 4 O 14.8
Oggi h: 02:20 molto_nuvoloso Molto Nuvoloso 18 17 93 1019 7 O/SO 9.3
Oggi h: 01:50 foschia Foschia 18 18 100 1019 5 SO 7.4
Oggi h: 01:20 foschia Foschia 18 18 100 1019 5 N 5.5
Oggi h: 00:50 molto_nuvoloso Molto Nuvoloso 19 18 93 1019 8 E 11.1
Oggi h: 00:20 coperto_pioggia Pioggia Debole 19 18 93 1019 9 E 11.1
Ieri h: 23:50 coperto_pioggia Pioggia 18 18 100 1019 4 NE 11.1
Ieri h: 23:20 coperto_pioggia Pioggia Foschia 19 18 93 1019 5 NE 13
Ieri h: 22:50 coperto_pioggia Pioggia 19 18 93 1019 3 N/NE 14.8
Ieri h: 22:20 nuvoloso_piovaschi Rovescio di Pioggia 19 18 93 1019 3 N/NE 16.7
Ieri h: 21:50 nuvoloso_temporali Temporale con Pioggia 19 18 93 1019 3 E/NE 14.8